Terug naar catalogus

SL-16 DEB

ActiefLEO
NORAD 28355·DEBRIS·🇷🇺 Russia

Gelanceerd Jun 10, 2004 vanaf Baikonur Cosmodrome

Loading…

Volgende Passages (komende 24 uur)

TLE

VersSource: Space-Track

Epoch: Sep 14, 2026, 06:37 UTC

1 28355U 04021D   26257.27632733  .00000006  00000-0  47814-4 0  9999
2 28355  70.9699   1.0940 0227619 203.7856 184.9737 13.68346712110852

Volg SL-16 DEB in realtime met AllMySat

Download on the App Store